Wind_Speed
20 18 18 18 18 18 17 17 17 18 18 19 19 19 20 19 19 19 19 18 18 19 18 18 19 18 17 17 17 17 18 18 19 19 19 18 18 18 18 18 19 19 20
20 18 17 17 17 17 17 17 17 18 18 18 19 19 19 19 19 19 19 19 19 19 19 18 18 18 18 18 18 18 18 19 19 20 20 19 19 18 19 19 19 20 21
18 18 17 17 17 16 17 18 17 18 17 18 19 19 19 19 19 18 19 19 19 19 19 18 17 17 18 17 18 18 17 18 19 19 20 20 19 19 19 20 21 22 22
18 17 16 16 16 16 17 17 17 17 18 18 19 20 19 19 19 18 18 18 19 18 18 18 18 18 18 18 18 18 18 19 19 19 20 21 20 20 20 21 22 22 23
17 17 16 16 16 16 16 16 17 18 19 20 21 20 19 18 18 18 18 18 18 18 18 18 18 18 18 18 18 19 19 19 20 20 20 20 21 21 21 21 22 23 23
17 16 15 15 16 15 14 16 18 18 20 20 19 19 18 18 17 17 18 18 18 18 18 17 17 18 19 19 19 19 20 20 20 20 20 20 21 22 22 23 23 24 24
16 15 14 14 15 15 15 16 16 17 17 17 17 18 18 18 17 17 17 17 17 17 17 17 17 18 19 19 19 19 20 20 20 20 21 21 22 23 23 23 24 25 26
14 13 14 14 15 15 15 15 15 15 15 15 16 16 16 17 17 16 16 16 15 15 16 16 17 18 18 19 19 20 19 19 19 21 22 22 22 23 24 25 26 27 28
13 13 14 14 14 14 14 14 14 14 14 15 15 15 15 16 16 16 14 13 13 13 14 15 16 17 17 18 18 18 18 19 19 20 21 22 23 24 25 26 27 29 29
13 12 13 13 14 13 13 14 14 14 14 14 14 13 14 13 13 13 12 12 12 12 13 13 14 15 16 17 18 18 19 19 19 20 21 22 24 25 25 27 28 29 30
11 12 12 13 13 13 13 13 13 13 13 12 12 12 12 11 11 10 10 10 10 11 12 12 13 14 15 16 16 16 17 18 19 20 21 22 24 25 25 27 28 29 29
12 12 12 13 13 12 12 12 12 12 11 11 12 12 11 10 10 9 9 10 11 11 12 13 13 13 14 15 16 17 18 18 19 20 21 22 23 24 25 27 27 28 28
11 12 12 12 12 12 12 11 11 11 10 10 11 11 10 10 9 8 8 9 10 11 12 12 13 13 13 14 15 17 17 18 19 20 21 21 22 23 25 26 27 27 27
12 11 12 12 12 12 11 11 10 10 9 9 9 10 9 9 8 8 8 9 10 11 11 12 12 12 13 14 15 16 17 18 19 19 20 21 22 22 23 25 26 26 26
12 12 12 13 13 12 11 10 10 9 9 9 8 8 8 7 7 8 8 9 9 10 10 11 10 11 13 14 15 16 17 18 19 19 20 21 21 22 23 24 25 25 25
12 12 12 12 11 10 10 9 9 8 8 7 7 7 7 7 7 8 7 8 8 9 9 10 11 12 13 15 16 16 17 18 19 20 20 21 21 22 23 24 24 25 24
12 12 12 11 10 10 9 9 8 8 7 7 7 7 7 7 8 8 8 8 8 9 10 10 11 12 14 15 16 16 17 18 19 19 19 20 21 22 22 23 24 24 25
12 11 10 10 10 10 10 8 8 8 8 7 7 7 7 8 8 8 8 8 8 9 10 11 12 13 14 15 16 17 17 18 18 18 19 20 21 21 22 23 24 24 25
11 11 10 10 10 10 10 9 8 8 7 6 6 6 7 7 7 8 8 9 9 10 11 11 13 14 15 15 16 17 17 17 18 19 20 20 21 22 22 24 24 24 24
11 10 10 10 10 10 10 9 8 7 6 6 6 6 7 7 7 8 9 9 10 11 12 12 13 15 16 16 15 15 16 17 19 20 21 21 21 22 23 24 24 23 23
11 9 10 10 10 10 9 8 7 6 6 6 7 7 7 8 8 9 9 10 10 11 12 13 15 16 17 17 17 16 17 19 20 21 21 21 22 22 23 24 23 23 24
10 9 9 9 9 9 8 7 6 6 6 7 7 8 8 8 9 9 10 11 11 12 13 14 15 17 17 17 18 17 17 19 20 21 21 21 21 22 23 24 24 24 24
10 9 8 8 8 8 7 7 7 6 7 8 8 9 9 9 10 10 11 11 12 13 14 15 16 17 17 17 18 19 19 19 19 19 20 21 22 21 22 23 23 23 24
9 8 8 8 8 8 7 7 7 7 8 8 9 10 10 10 10 11 11 12 13 14 15 16 17 18 18 18 18 19 19 19 20 19 20 21 22 22 22 23 23 23 24
9 9 8 8 8 8 7 7 7 8 8 9 10 10 11 11 11 11 11 12 13 15 16 17 18 18 18 19 19 19 19 19 20 20 20 21 22 22 22 23 23 23 24
10 9 8 8 8 8 8 8 8 9 9 9 10 10 11 11 12 12 12 13 15 16 17 17 18 18 19 19 20 20 19 20 20 20 20 21 22 22 23 23 23 22 23
Wind_Direction
291 289 285 285 282 282 283 285 286 288 288 290 291 288 286 284 283 281 281 280 279 277 276 278 278 281 281 283 284 285 283 282 284 286 286 284 284 283 283 284 284 284 284
294 292 288 286 283 283 282 284 286 287 289 292 292 291 288 287 285 283 280 279 274 273 274 276 277 279 279 282 284 286 286 285 287 288 288 286 285 284 284 284 285 286 285
297 293 285 283 283 279 280 281 282 286 290 291 292 292 289 286 286 287 285 281 276 273 271 274 275 276 277 281 282 284 287 288 288 287 286 288 286 284 285 286 286 287 287
300 298 289 284 281 280 278 279 283 289 291 292 294 294 289 286 285 287 285 284 280 277 271 269 272 273 276 279 281 281 284 286 287 287 286 287 286 285 286 288 289 290 289
298 300 298 291 285 282 279 280 285 288 289 291 293 294 290 288 287 284 284 285 282 278 272 269 271 274 276 278 281 281 282 285 287 287 288 287 286 287 288 290 291 292 291
299 296 294 292 290 287 284 285 286 287 289 289 290 291 291 290 288 283 283 285 282 280 275 273 274 275 277 279 281 282 283 285 285 286 287 287 286 287 289 291 291 292 292
302 298 293 289 291 292 291 292 294 294 292 292 292 290 289 291 288 285 284 284 282 280 278 275 274 274 278 279 280 280 279 282 285 285 286 288 289 290 290 292 293 293 293
307 303 299 293 294 296 296 296 297 296 296 296 296 294 292 290 287 285 285 285 284 282 280 277 275 275 278 280 280 280 279 281 284 287 289 290 291 292 292 293 294 294 294
309 309 304 297 299 301 300 301 298 296 297 298 299 299 298 293 291 287 285 285 283 282 280 277 276 279 281 282 283 286 284 285 286 289 291 293 293 293 294 295 296 296 295
312 311 309 304 302 305 304 301 299 298 300 301 302 304 302 299 294 288 287 286 284 283 284 278 280 283 284 285 286 287 290 287 289 292 294 295 297 296 296 297 298 298 297
315 314 317 314 311 310 308 305 304 303 302 302 303 306 308 306 298 292 290 286 284 286 288 283 285 287 288 290 289 291 292 291 290 292 295 297 299 299 298 298 300 300 299
318 320 320 321 317 315 312 307 306 305 303 301 303 303 308 309 302 293 289 284 285 290 293 293 292 293 293 293 292 293 295 292 291 292 296 299 301 301 301 302 302 302 302
323 324 324 326 322 318 314 309 306 309 308 307 307 311 312 312 310 301 293 290 290 294 299 300 295 296 297 298 299 299 297 296 295 297 299 302 305 304 305 307 306 305 304
326 325 325 326 324 322 319 316 314 312 313 316 317 319 314 313 311 308 301 296 297 301 304 301 299 299 302 302 302 304 304 303 303 305 306 307 308 307 309 310 310 308 306
328 329 328 327 327 326 322 318 318 317 316 317 318 320 323 320 315 312 308 302 302 304 304 306 308 307 306 306 307 306 309 307 308 310 311 311 311 313 314 314 314 312 310
328 332 332 331 332 331 330 327 325 327 326 323 320 318 321 326 324 319 316 313 311 310 311 313 315 316 315 315 315 313 311 310 311 312 313 314 315 316 318 320 319 317 315
329 331 331 336 339 337 336 336 335 332 332 330 328 326 324 327 330 332 328 326 325 323 323 321 318 319 320 320 319 318 318 317 316 315 316 315 317 319 321 323 321 319 317
330 330 332 336 337 337 338 337 336 337 337 335 330 331 331 331 331 332 331 330 332 332 330 326 324 323 323 321 320 320 319 320 322 320 319 317 318 319 321 322 322 321 320
332 333 335 336 335 336 333 336 336 337 338 339 338 336 336 336 337 339 339 340 339 337 336 332 332 329 326 323 321 322 324 324 325 324 322 320 320 320 319 320 322 324 324
332 333 339 342 342 339 337 337 339 339 346 345 343 340 340 343 345 344 342 342 341 339 337 334 333 333 331 328 327 328 328 328 325 324 323 321 320 321 322 323 323 323 323
329 331 336 341 344 344 342 341 343 347 352 353 349 346 345 345 344 343 341 338 337 337 337 336 333 333 333 334 333 330 330 330 328 327 326 325 324 324 325 324 323 323 324
329 330 335 341 344 345 347 352 355 356 357 352 353 353 348 344 341 339 338 339 338 337 336 335 333 333 335 338 338 336 332 331 330 328 327 326 325 325 325 325 325 325 325
329 332 336 339 341 343 347 352 355 355 351 347 345 344 342 339 338 337 337 338 337 336 336 335 335 336 338 338 337 336 333 331 331 332 331 330 328 327 326 326 328 327 326
325 327 330 332 335 337 341 341 343 343 348 347 344 342 341 341 338 334 335 337 336 335 334 333 337 339 340 339 337 336 334 332 332 333 333 332 332 329 330 331 330 329 329
316 319 323 325 326 328 331 335 335 338 337 338 339 338 337 335 335 332 332 333 333 334 334 334 336 338 339 340 338 337 336 334 333 333 335 334 333 333 333 334 333 331 331
307 308 309 315 320 322 325 324 324 326 329 330 332 332 331 331 333 335 334 333 333 333 333 334 334 335 336 338 338 337 337 337 335 334 334 335 335 336 336 335 335 334 333
Height
5824 5823 5823 5822 5822 5821 5820 5820 5820 5819 5818 5817 5817 5816 5816 5815 5815 5814 5814 5814 5814 5814 5814 5814 5814 5814 5814 5813 5813 5813 5814 5814 5814 5814 5813 5813 5813 5813 5812 5812 5811 5810 5810
5821 5820 5820 5819 5818 5817 5817 5817 5817 5816 5815 5814 5813 5812 5811 5811 5810 5810 5810 5810 5810 5810 5810 5810 5810 5810 5810 5810 5810 5810 5810 5810 5810 5810 5809 5809 5809 5808 5807 5807 5806 5805 5804
5817 5816 5816 5815 5815 5814 5814 5813 5813 5812 5811 5810 5809 5808 5807 5806 5806 5805 5805 5805 5805 5805 5805 5806 5806 5806 5806 5806 5806 5806 5806 5806 5805 5805 5805 5804 5804 5803 5803 5802 5801 5800 5799
5814 5812 5811 5811 5811 5811 5810 5810 5809 5808 5807 5806 5805 5804 5802 5802 5802 5801 5800 5800 5800 5800 5801 5801 5801 5801 5801 5801 5802 5802 5802 5801 5801 5800 5800 5799 5798 5798 5798 5797 5795 5794 5792
5812 5811 5808 5807 5807 5807 5806 5806 5805 5804 5803 5802 5800 5799 5798 5797 5797 5797 5796 5796 5795 5795 5796 5796 5797 5797 5797 5797 5797 5798 5797 5797 5796 5796 5795 5794 5793 5792 5791 5791 5789 5788 5786
5810 5808 5806 5805 5804 5803 5802 5801 5801 5799 5798 5797 5796 5795 5794 5793 5792 5792 5792 5791 5791 5791 5792 5792 5792 5792 5793 5793 5793 5793 5792 5792 5791 5791 5790 5789 5788 5787 5785 5785 5783 5782 5780
5807 5805 5803 5802 5801 5800 5799 5798 5796 5795 5794 5793 5792 5791 5790 5789 5788 5788 5787 5787 5787 5787 5787 5787 5788 5788 5788 5788 5788 5788 5787 5787 5786 5786 5785 5783 5782 5781 5779 5778 5777 5775 5773
5804 5802 5800 5799 5798 5797 5795 5794 5792 5791 5790 5789 5788 5787 5786 5785 5784 5784 5783 5783 5783 5783 5783 5783 5783 5784 5784 5783 5783 5783 5782 5782 5781 5781 5779 5778 5777 5775 5773 5772 5770 5768 5766
5802 5800 5798 5797 5795 5793 5792 5790 5789 5788 5787 5786 5784 5783 5782 5780 5780 5779 5779 5779 5779 5779 5779 5779 5779 5779 5779 5779 5779 5778 5777 5777 5776 5775 5774 5773 5771 5769 5767 5765 5762 5760 5758
5800 5798 5796 5794 5792 5790 5789 5788 5786 5785 5784 5783 5781 5780 5778 5776 5776 5775 5776 5776 5776 5776 5776 5776 5776 5776 5775 5774 5774 5774 5773 5772 5771 5770 5769 5767 5765 5762 5760 5758 5755 5752 5749
5798 5796 5794 5792 5790 5788 5787 5785 5784 5782 5781 5780 5778 5777 5775 5773 5773 5772 5772 5773 5773 5773 5773 5773 5773 5772 5772 5771 5770 5769 5768 5767 5766 5765 5763 5761 5759 5756 5754 5751 5748 5744 5741
5796 5794 5792 5790 5788 5786 5784 5783 5781 5780 5779 5778 5776 5774 5773 5771 5770 5770 5770 5770 5770 5770 5770 5770 5769 5769 5768 5767 5766 5765 5764 5762 5761 5759 5758 5756 5753 5750 5747 5744 5740 5737 5733
5795 5793 5790 5788 5786 5784 5783 5781 5779 5778 5776 5775 5774 5773 5771 5770 5768 5767 5768 5768 5768 5768 5767 5767 5766 5765 5765 5764 5762 5761 5759 5758 5756 5754 5752 5750 5747 5744 5741 5737 5733 5729 5726
5794 5791 5789 5787 5785 5783 5780 5779 5777 5776 5774 5773 5772 5771 5769 5768 5767 5766 5766 5766 5766 5766 5765 5764 5764 5763 5762 5760 5759 5757 5755 5753 5751 5749 5747 5744 5741 5738 5734 5731 5727 5723 5718
5792 5790 5788 5785 5783 5781 5779 5777 5776 5774 5773 5772 5771 5769 5768 5767 5766 5766 5765 5765 5765 5764 5763 5762 5761 5760 5759 5757 5755 5754 5751 5749 5747 5744 5741 5739 5735 5732 5728 5724 5720 5716 5712
5791 5789 5786 5784 5782 5780 5778 5776 5774 5772 5771 5770 5769 5768 5768 5767 5766 5765 5764 5764 5763 5763 5762 5761 5759 5758 5756 5754 5752 5749 5747 5745 5742 5740 5737 5733 5730 5727 5723 5718 5714 5710 5705
5790 5787 5785 5783 5781 5779 5777 5775 5773 5772 5770 5769 5768 5768 5767 5766 5765 5764 5764 5763 5762 5761 5760 5759 5757 5755 5753 5751 5748 5746 5743 5741 5738 5735 5732 5729 5725 5722 5718 5714 5709 5704 5700
5789 5786 5784 5782 5780 5778 5776 5774 5773 5771 5769 5768 5768 5767 5766 5766 5765 5764 5763 5762 5761 5760 5759 5757 5755 5753 5750 5748 5745 5742 5739 5737 5734 5731 5727 5724 5721 5717 5713 5709 5704 5700 5695
5787 5785 5783 5781 5779 5777 5775 5774 5772 5770 5769 5768 5767 5767 5766 5765 5764 5763 5762 5761 5760 5759 5757 5755 5753 5750 5747 5745 5742 5739 5736 5733 5730 5726 5723 5719 5716 5712 5708 5704 5700 5695 5691
5786 5785 5783 5781 5779 5777 5775 5773 5772 5770 5769 5768 5768 5767 5766 5765 5764 5763 5762 5760 5759 5757 5755 5753 5751 5748 5745 5742 5738 5735 5732 5729 5726 5722 5718 5715 5711 5707 5703 5699 5695 5690 5686
5785 5784 5782 5780 5778 5776 5774 5773 5772 5770 5770 5769 5768 5767 5766 5765 5764 5762 5761 5759 5758 5756 5754 5752 5749 5746 5742 5739 5735 5732 5729 5725 5722 5718 5714 5710 5707 5703 5699 5694 5690 5686 5681
5785 5783 5781 5780 5778 5776 5774 5773 5772 5771 5770 5769 5768 5767 5766 5765 5763 5762 5760 5759 5757 5755 5752 5750 5747 5743 5740 5736 5733 5729 5725 5722 5718 5714 5711 5707 5703 5699 5694 5690 5686 5681 5676
5783 5782 5781 5779 5778 5776 5775 5774 5772 5771 5770 5769 5768 5767 5765 5764 5763 5761 5759 5757 5755 5753 5750 5748 5744 5741 5737 5733 5730 5726 5722 5718 5714 5710 5707 5703 5699 5694 5690 5686 5681 5677 5672
5782 5781 5780 5779 5778 5776 5775 5774 5773 5772 5771 5769 5768 5766 5765 5763 5762 5760 5758 5756 5754 5751 5748 5745 5742 5738 5734 5731 5727 5723 5719 5715 5711 5707 5703 5699 5695 5691 5686 5682 5677 5672 5668
5781 5780 5779 5778 5777 5775 5775 5773 5772 5771 5770 5769 5767 5765 5764 5762 5760 5758 5756 5754 5752 5749 5746 5743 5739 5736 5733 5729 5724 5720 5716 5712 5708 5704 5700 5696 5692 5688 5683 5678 5674 5669 5664
5780 5779 5778 5777 5776 5774 5774 5773 5772 5771 5769 5768 5766 5764 5762 5760 5759 5757 5754 5752 5750 5747 5744 5740 5737 5733 5730 5726 5722 5718 5714 5709 5706 5702 5698 5694 5689 5685 5680 5675 5670 5665 5661